Location: Centerville
(32.8776°N, 96.6203°W)
Time: 05:34:43
(UTC+00:00)

MOS 1-B Rocket - Pass Details

Date: 17 June 2021
Orbit: 890 x 1605 km, 99.0° (Epoch: 29 July)

Event Time Altitude Azimuth Distance (km) Brightness Sun altitude
Rises 02:14:51 0° 8° (N) 3,508 7.3 -7.6°
Reaches altitude 10° 02:17:14 10° 5° (N) 2,563 6.6 -8.0°
Maximum altitude 02:22:43 60° 286° (WNW) 1,043 4.6 -9.0°
Drops below altitude 10° 02:28:34 10° 208° (SSW) 2,724 6.3 -10.0°
Sets 02:31:10 0° 205° (SSW) 3,747 6.9 -10.4°
